Weather in Zheleznogorsk-Ilimsky

Russia / Irkutsk Oblast     56°35′05″N   104°06′51″E
temp.,
°C
wind,
m/s
gust,
m/s
humid.,
%
clouds,
%
prec.,
mm/h
press.,
hPa
HPBL,
m
18 april, sun
sun1823:00−7nw497945 0.0 1018899
02:00−8nnw388559 0.0 1022692
05:00−10wnw119511 0.0 102425
08:00−8wnw23665 0.0 1026756
11:00−3wsw125437 0.0 10251120
14:000ssw1247100 0.0 10231745
17:00−1sse2346100 0.0 10211626
20:00−4ese2378100 0.0 102159
19 april, mon
mon1923:00−5ese1185100 0.0 102135
02:00−8se119256 0.0 102024
05:00−9se119396 0.0 101919
08:00−3se256425 0.0 1016207
11:00+2sse61260100 0.0 10101086
14:00+3sse71463100 0.0 10041109
17:00+4s61469100 0.3 9981229
20:00+1wsw819569 1.2 10001428
20 april, tue
tue2023:00−5wsw71676100 0.0 10081181
02:00−7wsw6147492 0.0 10111172
05:00−9wsw4117375 0.0 10141048
08:00−8wsw596776 0.0 10161142
11:00−5wsw584899 0.0 10151606
14:00−3wsw61042100 0.0 10142221
17:00−2wsw61245100 0.0 10152580
20:00−4wsw4105691 0.1 10161134
21 april, wed
wed2123:00−6wsw4106689 0.0 1017812
02:00−6wsw4107675 0.0 1018843
05:00−7sw4981100 0.0 1019950
08:00−6wsw5874100 0.1 10201020
11:00−3wsw5761100 0.1 10211382
14:00−1wsw4658100 0.3 10211689
17:00−1w5762100 0.5 10221394
20:00−4wsw2380100 1.0 102563
22 april, thu
thu2223:00−6ssw11975 0.0 102710
02:00−8s009867 0.0 102910
05:00−9se119975 0.0 103110
08:00−4ese11825 0.0 1031183
11:00+1ese014991 0.0 10311381
14:00+3n1138100 0.1 10311912
17:00+2n2138100 0.0 10311789
20:00−2n2268100 0.0 103333